FW8624 Weather Reports


Display with metric or nautical units.
time (UTC)temp
F
wind
direction
speed
MPH
gust
MPH
rain 1hr
in
rain 24hr
in
rain mn
in
humidity
%
barometer
mb
20220520203017 79 240 5.0 13.0 0.00 0.00 0.00 84 1016.1
20220520201522 79 312 7.0 15.0 0.00 0.00 0.00 84 1016.2
20220520200009 79 244 8.0 13.0 0.00 0.00 0.00 84 1016.2
20220520194512 79 258 8.0 16.0 0.00 0.00 0.00 83 1016.2
20220520193013 79 242 7.0 16.0 0.00 0.00 0.00 84 1016.3
20220520191514 79 249 5.0 14.0 0.00 0.00 0.00 84 1016.6
20220520190013 79 227 4.0 13.0 0.00 0.00 0.00 86 1016.5
20220520184509 78 304 3.0 14.0 0.00 0.00 0.00 86 1016.4
20220520183011 78 250 7.0 14.0 0.00 0.00 0.00 87 1016.5
20220520181510 77 254 7.0 13.0 0.00 0.00 0.00 88 1016.5
20220520180009 78 275 7.0 12.0 0.00 0.00 0.00 88 1016.6
20220520174510 78 263 7.0 14.0 0.00 0.00 0.00 87 1016.5
20220520173009 78 233 5.0 12.0 0.00 0.00 0.00 88 1016.6
20220520171524 78 200 8.0 14.0 0.00 0.00 0.00 88 1016.5
20220520170009 78 236 6.0 12.0 0.00 0.00 0.00 89 1016.6
20220520164510 77 252 8.0 14.0 0.00 0.00 0.00 89 1016.6
20220520163010 78 244 6.0 12.0 0.00 0.00 0.00 89 1016.5
20220520161509 77 267 7.0 12.0 0.00 0.00 0.00 89 1016.5
20220520160010 77 211 6.0 12.0 0.00 0.00 0.00 89 1016.4
20220520154513 77 217 7.0 12.0 0.00 0.00 0.00 89 1016.3
20220520153015 77 211 5.0 12.0 0.00 0.00 0.00 89 1016.0
20220520151509 77 211 6.0 11.0 0.00 0.00 0.00 89 1016.1
20220520150012 76 252 6.0 13.0 0.00 0.00 0.00 90 1015.9
20220520144510 76 261 7.0 12.0 0.00 0.00 0.00 91 1015.8
20220520143010 76 234 6.0 13.0 0.00 0.00 0.00 90 1015.9
20220520141523 76 233 8.0 12.0 0.00 0.00 0.00 90 1015.7
20220520140024 76 253 4.0 11.0 0.00 0.00 0.00 90 1015.5
20220520134510 76 230 5.0 10.0 0.00 0.00 0.00 91 1015.4
20220520133009 76 241 7.0 11.0 0.00 0.00 0.00 91 1015.3
20220520131509 76 255 5.0 10.0 0.00 0.00 0.00 91 1015.3
20220520130017 76 250 6.0 13.0 0.00 0.00 0.00 92 1015.3
20220520124511 75 240 6.0 12.0 0.00 0.00 0.00 93 1015.2
20220520123017 75 236 7.0 12.0 0.00 0.00 0.00 93 1015.0
20220520121513 75 254 7.0 14.0 0.00 0.00 0.00 93 1015.0
20220520120009 75 232 5.0 13.0 0.00 0.00 0.00 93 1014.7
20220520114513 75 237 5.0 13.0 0.00 0.00 0.00 92 1014.5
20220520113013 75 244 7.0 15.0 0.00 0.00 0.00 92 1014.5
20220520111512 75 247 5.0 14.0 0.00 0.00 0.00 91 1014.4
20220520110011 75 276 6.0 13.0 0.00 0.00 0.00 90 1014.3
20220520104510 75 265 5.0 12.0 0.00 0.00 0.00 89 1014.1
20220520103029 75 260 6.0 15.0 0.00 0.00 0.00 88 1013.7
20220520101521 75 234 4.0 14.0 0.00 0.00 0.00 88 1013.3
20220520100013 75 253 6.0 12.0 0.00 0.00 0.00 88 1013.2
20220520094513 75 236 4.0 10.0 0.00 0.00 0.00 88 1013.2
20220520093032 75 232 4.0 9.0 0.00 0.00 0.00 88 1013.0
20220520091512 74 228 3.0 11.0 0.00 0.00 0.00 88 1012.8
20220520090012 75 236 5.0 12.0 0.00 0.00 0.00 87 1012.7
20220520084513 75 240 4.0 10.0 0.00 0.00 0.00 87 1012.4
20220520083012 75 222 5.0 10.0 0.00 0.00 0.00 88 1012.4
20220520081525 74 225 3.0 9.0 0.00 0.00 0.00 88 1012.5
20220520080010 74 221 4.0 14.0 0.00 0.00 0.00 88 1012.7
20220520074516 74 246 5.0 11.0 0.00 0.00 0.00 89 1012.2
20220520073020 74 205 5.0 13.0 0.00 0.00 0.00 89 1012.0
20220520071511 74 252 4.0 12.0 0.00 0.00 0.00 88 1012.0
20220520070012 75 267 6.0 12.0 0.00 0.00 0.00 88 1012.1
20220520064512 75 260 4.0 13.0 0.00 0.00 0.00 88 1012.2
20220520063016 75 274 8.0 14.0 0.00 0.00 0.00 88 1012.3
20220520061513 75 211 7.0 12.0 0.00 0.00 0.00 88 1012.3
20220520060016 75 287 5.0 11.0 0.00 0.00 0.00 88 1012.2
20220520054518 75 230 7.0 13.0 0.00 0.00 0.00 87 1012.2
20220520053009 75 238 5.0 11.0 0.00 0.00 0.00 87 1012.2
20220520051509 75 223 5.0 12.0 0.00 0.00 0.00 88 1012.4
20220520050015 75 0 6.0 10.0 0.00 0.00 0.00 88 1012.3
20220520044510 75 209 5.0 12.0 0.00 0.00 0.00 88 1012.3
20220520043011 75 225 4.0 10.0 0.00 0.00 0.00 88 1012.1
20220520041510 75 213 5.0 12.0 0.00 0.00 0.00 87 1012.1
20220520040009 75 216 5.0 11.0 0.00 0.00 0.00 87 1012.1
20220520034515 75 213 5.0 11.0 0.00 0.00 0.00 88 1012.2
20220520033013 75 244 5.0 15.0 0.00 0.00 0.00 87 1012.0
20220520031511 75 247 7.0 13.0 0.00 0.00 0.00 87 1012.0
20220520030013 75 211 6.0 13.0 0.00 0.00 0.00 87 1011.8
20220520024518 75 213 6.0 14.0 0.00 0.00 0.00 87 1011.8
20220520023022 75 243 6.0 12.0 0.00 0.00 0.00 88 1011.6
20220520021512 75 200 7.0 14.0 0.00 0.00 0.00 87 1011.4
20220520020012 75 290 5.0 13.0 0.00 0.00 0.00 88 1011.2
20220520014512 76 239 6.0 13.0 0.00 0.00 0.00 88 1010.9
20220520013022 76 228 8.0 17.0 0.00 0.00 0.00 87 1010.5
20220520011510 76 286 5.0 17.0 0.00 0.00 0.00 87 1010.5
20220520010013 76 224 6.0 14.0 0.00 0.00 0.00 87 1010.4
20220520004512 76 223 6.0 14.0 0.00 0.00 0.00 88 1010.2
20220520003012 76 259 7.0 16.0 0.00 0.00 0.00 88 1010.2
20220520001526 76 200 6.0 13.0 0.00 0.00 0.00 89 1010.2
20220520000010 76 254 6.0 14.0 0.00 0.00 0.00 89 1010.2
20220519234512 76 248 6.0 13.0 0.00 0.00 0.00 89 1009.9
20220519233024 76 223 6.0 13.0 0.00 0.00 0.00 89 1009.7
20220519231511 76 241 5.0 13.0 0.00 0.00 0.00 89 1009.6
20220519230015 76 223 5.0 13.0 0.00 0.00 0.00 88 1009.5
20220519224513 76 233 5.0 12.0 0.00 0.00 0.00 88 1009.5
20220519223047 76 213 4.0 12.0 0.00 0.00 0.00 88 1009.6
20220519221509 76 241 4.0 11.0 0.00 0.00 0.00 87 1009.7
20220519220023 77 238 6.0 15.0 0.00 0.00 0.00 86 1009.5
20220519214512 77 232 7.0 12.0 0.00 0.00 0.00 86 1009.6
20220519213012 77 229 6.0 13.0 0.00 0.00 0.00 87 1009.7
20220519211510 77 202 6.0 15.0 0.00 0.00 0.00 87 1009.4
20220519210016 77 234 5.0 14.0 0.00 0.00 0.00 87 1009.3
20220519204519 77 269 6.0 13.0 0.00 0.00 0.00 87 1009.4